Regional Weather Roundup
Issued by NWS

Home | Current Version | Previous Version | Text Only | Print | Product List | Glossary On
Versions: 1 2 3 4 5 6 7 8 9 10 11 12 13 14 15 16 17 18 19 20 21 22 23 24 25 26 27 28 29 30 31 32 33 34 35 36 37 38 39 40 41 42 43 44 45 46 47 48 49 50
000
ASUS43 KOAX 230210
RWRNE

WEATHER ROUNDUP FOR NEBRASKA
NATIONAL WEATHER SERVICE OMAHA NE
900 PM CDT TUE JUL 22 2014

NOTES: SATELLITE DATA IS BEING USED TO AUGMENT CLOUD COVER ABOVE
       12000 FEET.
       "FAIR" INDICATES FEW OR NO CLOUDS BELOW 12,000 FEET WITH NO
       SIGNIFICANT WEATHER AND/OR OBSTRUCTIONS TO VISIBILITY.

  * THESE STATIONS DO NOT REPORT WEATHER SUCH AS RAIN...SNOW OR FOG.

NEZ001>004-019>022-054>056-230300-
NEBRASKA PANHANDLE

CITY           SKY/WX    TMP DP  RH WIND       PRES   REMARKS
SCOTTSBLUFF    FAIR      85  58  39 SE12      30.19S
ALLIANCE       FAIR      84  57  39 SE12      30.21S
CHADRON        FAIR      85  61  44 SE15      30.14S
KIMBALL        FAIR      82  55  39 SE7       30.26F
SIDNEY         FAIR      84  57  39 SE9       30.26R
$$

NEZ057>060-069>072-079>082-230300-
SOUTHWEST NEBRASKA

CITY           SKY/WX    TMP DP  RH WIND       PRES   REMARKS
NORTH PLATTE   FAIR      81  64  56 E14       30.18R
IMPERIAL       FAIR      83  62  49 E7        30.19R
LEXINGTON      FAIR      80  67  63 NE10      30.17R
MCCOOK         FAIR      82  63  52 E12       30.16R
OGALLALA       FAIR      81  61  50 E12       30.19F
$$

NEZ005>010-023>029-035>040-094-230300-
NORTH CENTRAL NEBRASKA

CITY           SKY/WX    TMP DP  RH WIND       PRES   REMARKS
VALENTINE      FAIR      79  62  56 E7        30.20S
AINSWORTH      FAIR      73  64  72 E5        30.22S
BROKEN BOW     FAIR      78  67  68 NE8       30.20R
O`NEILL        FAIR      75  64  67 NE7       30.21R
ORD            FAIR      75  65  70 NE5       30.18R
THEDFORD       FAIR      79  63  58 E9        30.23R
$$

NEZ041-046>049-061>064-073>077-083>087-230300-
SOUTH CENTRAL NEBRASKA

CITY           SKY/WX    TMP DP  RH WIND       PRES   REMARKS
GRAND ISLAND   FAIR      78  70  76 NE9       30.16R
AURORA         FAIR      78  70  75 NE13      30.15S
HASTINGS       FAIR      79  66  64 NE9       30.14S
HEBRON         FAIR      83  70  63 NE7       30.11R
HOLDREGE       FAIR      78  67  68 E9        30.16R
KEARNEY *      FAIR      79  66  65 NE9       30.17R
YORK           FAIR      77  72  83 N12       30.14S
$$

NEZ011>018-030>034-042>045-230300-
NORTHEAST NEBRASKA

CITY           SKY/WX    TMP DP  RH WIND       PRES   REMARKS
NORFOLK        FAIR      78  67  68 NE8       30.16S
ALBION         FAIR      75  67  76 N3        30.18R
BLAIR          FAIR      78  68  73 N8        30.13S
COLUMBUS *     FAIR      73  64  73 NE5       30.16S
FREMONT        FAIR      79  68  69 CALM      30.14S
TEKAMAH        FAIR      78  67  68 N7        30.12S
WAYNE          FAIR      74  67  80 CALM      30.16S
$$

NEZ050>053-065>068-078-088>093-230300-
SOUTHEAST NEBRASKA

CITY           SKY/WX    TMP DP  RH WIND       PRES   REMARKS
LINCOLN        FAIR      80  68  66 NE12      30.12R
OMAHA EPPLEY   MOCLDY    79  69  71 N7        30.11R
BEATRICE       FAIR      79  70  74 N9        30.10R
FALLS CITY     FAIR      83  77  82 CALM      30.04S HX  92
NEBRASKA CITY  FAIR      80  70  71 N15G21    30.09S
PLATTSMOUTH    FAIR      80  68  66 N10       30.11S
$$

NEZ044-045-051>053-067-230300-
OMAHA AREA

CITY           SKY/WX    TMP DP  RH WIND       PRES   REMARKS
OMAHA EPPLEY   MOCLDY    79  69  71 N7        30.11R
BLAIR          FAIR      78  68  73 N8        30.13S
FREMONT        FAIR      79  68  69 CALM      30.14S
MILLARD        FAIR      81  70  69 N5        30.11S
OFFUTT AFB     FAIR      80  71  75 N5        30.11R
PLATTSMOUTH    FAIR      80  68  66 N10       30.11S
WAHOO          FAIR      77  67  72 N7        30.13S
$$



USA.gov is the U.S. government's official web portal to all federal, state and local government web resources and services.